Regional Weather Roundup
Issued by NWS Sterling, VA

Home | Current Version | Previous Version | Text Only | Print | Product List | Glossary Off
Versions: 1 2 3 4 5 6 7 8 9 10 11 12 13 14 15 16 17 18 19 20 21 22 23 24 25 26 27 28 29 30 31 32 33 34 35 36 37 38 39 40 41 42 43 44 45 46 47 48 49 50

000
ASUS41 KLWX 182110
RWRLWX

REGIONAL WEATHER ROUNDUP
NATIONAL WEATHER SERVICE BALTIMORE MD/WASHINGTON DC
400 PM EST WED JAN 18 2017

Note: "FAIR" indicates few or no clouds below 12,000 feet
with no significant weather and/or obstructions to visibility.
 TC=TEMPERATURE CELSIUS

 * =Non NWS site. Station does not report precipitation (e.g. rain,
    snow, etc.), thunder, or fog.

DCZ001-MDZ009-015-VAZ040>042-051-053>054-182200-
WASHINGTON METRO

CITY           SKY/WX    TMP DP  RH WIND       PRES   REMARKS
WASHINGTON NAT PTSUNNY   57  38  48 NW14G25   29.98R
DULLES         PTSUNNY   53  37  54 NW15G23   29.99R
ANDREWS AFB    PTSUNNY   55  38  52 NW15      29.96R
FT BELVOIR     PTSUNNY   56  37  47 NW16G23   29.98R
QUANTICO       PTSUNNY   57  38  48 N12G24    30.00R
COLLEGE PARK*  MOSUNNY   54  36  50 NW7G17    29.98R
MANASSAS*      PTSUNNY  N/A N/A N/A NW12G23   30.00R
GAITHERSBURG*  PTSUNNY   52  36  54 NW10G18   30.02R

$$

MDZ006>007-011-014-182200-
BALTIMORE METRO

CITY           SKY/WX    TMP DP  RH WIND       PRES   REMARKS
BWI AIRPORT    PTSUNNY   54  40  59 NW16G22   29.96R
MD SCIENCE CTR   N/A     56  38  50 MISG      29.96R
MARTIN STATE   PTSUNNY   55  45  67 W17       29.98R
ANNAPOLIS      CLOUDY    54  39  57 NW10      29.96R
FORT MEADE*    MOSUNNY   52  37  58 NW10      30.00R

$$

MDZ012-015-019>023-182200-
MARYLAND EASTERN SHORE

CITY           SKY/WX    TMP DP  RH WIND       PRES   REMARKS
OCEAN CITY     CLOUDY    51  45  79 N7        29.95R
SALISBURY      CLOUDY    53  44  71 NW13      29.95R
BAY BRIDGE AP* CLOUDY    50  39  66 NW9       29.97R
CAMBRIDGE*     CLOUDY    52  41  66 NW9       29.96R
EASTON*        CLOUDY    54  41  62 N7        30.00R

$$

MDZ017>025-182200-
SOUTHERN MARYLAND

CITY           SKY/WX    TMP DP  RH WIND       PRES   REMARKS
PATUXENT RIVER PTSUNNY   55  40  56 NW13G24   29.96R
ST INIGOES     CLOUDY    54  43  66 W5        29.96R
LEONARDTOWN*   CLOUDY    55  37  50 NW8       29.98R

$$

MDZ003>005-182200-
NORTH CENTRAL MARYLAND

CITY           SKY/WX    TMP DP  RH WIND       PRES   REMARKS
FREDERICK*     PTSUNNY   54  39  58 NW12G23   30.02
HAGERSTOWN APT CLOUDY    49  35  58 NW15      30.01R
WESTMINSTER*   CLOUDY    48  37  66 W6        29.98R

$$

MDZ501>502-182200-
WESTERN MARYLAND

CITY           SKY/WX    TMP DP  RH WIND       PRES   REMARKS
OAKLAND*       FOG       32  32 100 W9G20     30.02S VSB 1/4 WCI  24
CUMBERLAND*    CLOUDY    45  34  65 W8        30.11R

$$

VAZ025>031-182200-
SHENANDOAH VALLEY

CITY           SKY/WX    TMP DP  RH WIND       PRES   REMARKS
WINCHESTER*    SUNNY     46  34  61 NW15      30.00R
FRONT ROYAL*   PTCLDY    54  36  50 NW5       29.99R
LURAY*         PTCLDY    55  37  50 W9G16     29.99R
NEW MARKET*    PTCLDY    54  33  45 NW7G16    30.00R
STAUNTON*      SUNNY     54  34  46 N8        30.02R
WAYNESBORO*    CLEAR     55  32  42 NW9       29.99R

$$

WVZ021-048>050-054>055-182200-
EASTERN WEST VIRGINIA PANHANDLE

CITY           SKY/WX    TMP DP  RH WIND       PRES   REMARKS
MARTINSBURG    PTSUNNY   50  34  54 W21G30    30.01R
PETERSBURG*    SUNNY     51  36  56 W16       30.05R

$$

VAZ036>039-050-182200-
CENTRAL FOOTHILLS

CITY           SKY/WX    TMP DP  RH WIND       PRES   REMARKS
CHARLOTTESVILL SUNNY     60  34  37 NW9       29.98R
CULPEPER*      MOSUNNY   59  37  44 N6        29.99R
ORANGE*          N/A     59  34  38 W9        30.00R
GORDONSVILLE*  CLEAR     59  35  40 NW3       29.97R
WARRENTON*     MOSUNNY   58  32  37 NW12G20   29.98R

$$

VAZ055>057-182200-
NORTH AND CENTRAL PIEDMONT

CITY           SKY/WX    TMP DP  RH WIND       PRES   REMARKS
FREDERICKSBRG* SUNNY     59  39  47 N12G18    29.98R
STAFFORD*      SUNNY     56  38  50 N9        30.02R

$$

NCZ024-NYZ072-PAZ021-071-VAZ022-071-182200-
OTHER REGIONAL OBSERVATIONS

CITY           SKY/WX    TMP DP  RH WIND       PRES   REMARKS
NEW YORK CITY  CLOUDY    41  36  82 NE6       29.97F
PHILADELPHIA   CLOUDY    47  40  76 N8        29.97R
PITTSBURGH     CLOUDY    40  34  79 W8        30.08R
ROANOKE        MOSUNNY   54  34  46 NW14      30.05R
RICHMOND       MOSUNNY   61  37  41 NW12      29.96R
RALEIGH        MOSUNNY   67  35  30 VRB5      29.98R

$$

ANZ530>537-182200-
MARINE OBSERVATIONS

STATION/POSITION TIME  TEMP    WIND        PRES
                       AIR SEA DIR/SP/G
                 (UTC) (F)     (DEG/KT/KT) (MB)
THOMAS PT LIGHT  2100   53 39  340/ 14/ 16   N/A
BALT KEY BRIDGE  2048   52     290/ 12/ 14 1014.6R
COVE POINT       2048   47     350/ 10/ 11 1015.2R
LEWISETTA        2048   50 44  130/  2/  3 1014.3R
SOLOMONS ISLAND  2048   55 42  330/ 10/ 14   N/A
PINEY POINT      2048          360/ 13/ 15   N/A

$$




USA.gov is the U.S. government's official web portal to all federal, state and local government web resources and services.